Hourly Data Report for August 29, 2021

KUGLUKTUK A
NUNAVUT
Current Station Operator: NAVCAN

67°49'00.000" N
115°08'38.000" W
22.60 m
2300903
71938
YCO

Download Data

Hourly Data (August 2021)
Hourly Data Report for August 29, 2021
TIME
LST
Temp Definition
°C
Dew Point Definition
°C
Rel Hum Definition
%
Precip. Amount Definition
mm

Wind Dir Definition
10's deg

Wind Spd Definition
km/h
Visibility Definition
km
Stn Press Definition
kPa
Hmdx Definition


Wind Chill Definition


Weather Definition


00:00 7.9 7.0 94   4 7 16.1 100.69     LegendNANA
01:00 7.8 7.0 95   4 8 16.1 100.69     LegendNANA
02:00 7.9 7.0 94   2 10 16.1 100.68     Cloudy
03:00 7.9 7.0 94   4 7 19.3 100.67     LegendNANA
04:00 7.2 6.5 95   1 4 12.9 100.66     LegendNANA
05:00 7.9 7.2 95   4 8 16.1 100.65     Cloudy
06:00 8.1 7.4 95   31 4 12.9 100.70     LegendNANA
07:00 8.3 7.3 93   36 8 12.9 100.70     LegendNANA
08:00 8.5 7.4 93   33 8 12.9 100.68     Cloudy
09:00 8.4 7.3 93   34 11 16.1 100.68     LegendNANA
10:00 8.9 7.7 92   35 10 12.9 100.69     LegendNANA
11:00 9.8 8.1 89   35 10 16.1 100.71     Cloudy
12:00 10.9 8.6 86   1 8 16.1 100.71     LegendNANA
13:00 12.4 9.0 80   25 4 24.1 100.72     LegendNANA
14:00 13.2 9.4 78   36 9 24.1 100.72     Mostly Cloudy
15:00 13.0 9.1 77   3 10 40.2 100.76     LegendNANA
16:00 12.5 9.2 80   5 8 24.1 100.78     LegendNANA
17:00 12.3 9.2 81   4 9 24.1 100.83     Cloudy
18:00 12.0 9.1 82   3 13 24.1 100.87     LegendNANA
19:00 10.9 8.6 85   2 11 24.1 100.93     LegendNANA
20:00 9.3 8.0 92   35 27 19.3 101.03     Drizzle
21:00 8.0 6.3 89   35 32 24.1 101.09     LegendNANA
22:00 7.7 5.8 88   33 27 24.1 101.14     LegendNANA
23:00 7.3 5.7 89   33 23 24.1 101.19     Drizzle

Notes on Data Quality.

Legend

  • E = Estimated
  • M = Missing
  • NA = Not Available*
  • [empty] = Indicates an unobserved value
Date modified: